Location: Grundfeld
(50.1221°N, 11.0365°E)
Time: 02:31:50
(UTC+00:00)

Daily predictions for brighter satellites

Satellite Brightness Start Highest point End
(mag) Time Altitude Azimuth Time Altitude Azimuth Time Altitude Azimuth
USA 234 4.0 03:01:56 10° ENE 03:08:06 43° SE 03:08:17 43° SE
Cosmos 2297 Rocket 3.8 03:41:26 25° NNE 03:41:26 25° NNE 03:43:50 10° NNE
Cosmos 1464 Rocket 4.3 03:41:29 55° NNE 03:41:29 55° NNE 03:46:11 10° N
Cosmos 2227 Rocket 3.6 03:45:37 27° N 03:45:37 27° N 03:48:16 10° NNE
CZ-4C R/B 3.0 03:48:11 58° SSW 03:48:11 58° SSW 03:55:27 10° SSE
GEOS 3 Rocket 4.1 03:44:50 10° SE 03:48:39 52° SE 03:48:39 52° SE
Cosmos 1624 Rocket 4.1 04:01:11 75° SSE 04:01:29 78° ESE 04:06:51 10° NNE
Cosmos 1943 3.3 04:01:23 57° N 04:02:23 69° ENE 04:07:59 10° SE
Cosmos 2056 Rocket 3.4 04:07:01 82° SE 04:07:04 83° ESE 04:12:14 10° NNE
Nadezhda 4 Rocket 3.8 04:06:11 62° NW 04:07:13 76° W 04:13:21 10° S
Cosmos 676 Rocket 4.0 04:08:26 73° S 04:08:26 73° S 04:13:14 10° SSE
Cosmos 1607 4.2 04:09:07 49° NNW 04:09:07 49° NNW 04:14:32 10° NE
BREEZE-M DEB (TANK) 4.2 04:06:11 31° SW 04:10:16 56° SSE 04:14:01 10° E
Cosmos 1513 Rocket 4.5 04:11:17 62° WNW 04:11:17 62° WNW 04:17:20 10° N
COSMO-SKYMED 1 2.8 04:08:02 10° SSE 04:12:09 69° E 04:12:09 69° E
Geosat 3.8 04:09:57 10° SSE 04:14:59 82° WSW 04:15:08 81° W
Cosmos 1954 Rocket 3.9 04:17:31 74° WSW 04:17:31 74° WSW 04:22:41 10° SSE
Cosmos 1703 Rocket 3.5 04:21:51 82° SSE 04:21:51 82° SSE 04:26:04 10° S
Okean O Rocket 3.5 04:17:51 10° NNE 04:21:46 31° E 04:25:41 10° SSE
ATLAS 5 CENTAUR R/B 2.9 04:24:32 31° N 04:24:32 31° N 04:28:05 10° NE
Cosmos 1603 3.6 04:23:04 61° WNW 04:23:52 69° WSW 04:29:31 10° SSE
CZ-2C R/B 4.3 04:19:43 10° N 04:20:41 16° N 04:20:41 16° N
STARLINK 1045 4.5 04:26:54 36° SSE 04:26:54 36° SSE 04:29:14 10° SE
Cosmos 1420 Rocket 4.5 04:20:46 10° S 04:25:51 59° ESE 04:30:58 10° NNE
NOSS 2-1 (C) 4.4 04:26:32 52° W 04:27:15 56° SW 04:34:28 10° SSE
ATLAS CENTAUR R/B 3.5 04:27:13 17° N 04:28:09 18° NNE 04:31:05 10° ENE
Cosmos 2026 Rocket 4.0 04:22:59 10° N 04:29:10 78° E 04:35:25 10° SSE
Cosmos 2082 4.4 04:31:05 36° NNW 04:31:05 36° NNW 04:35:23 10° NNE
NOSS 2-1 (D) 4.5 04:30:01 49° W 04:30:50 53° SW 04:38:00 10° SSE
SKYMED 3 4.4 04:32:11 10° S 04:36:30 69° WSW 04:36:34 69° W
Cosmos 1741 Rocket 4.2 04:33:42 27° NNW 04:36:36 71° ENE 04:41:48 10° SSE
Meteor 2-11 Rocket 4.4 04:30:43 10° SSW 04:36:40 54° WNW 04:42:42 10° N
Cosmos 1869 Rocket 3.8 04:37:02 10° S 04:41:19 67° E 04:45:39 10° NNE
ALOS 2.5 04:38:56 10° NNE 04:43:38 70° ESE 04:48:17 10° S
Cosmos 1340 3.6 04:44:50 10° S 04:48:28 49° E 04:52:07 10° NNE
ADEOS Rocket 4.2 04:43:27 10° SE 04:49:53 45° ENE 04:55:43 10° N
Okean 1 3.1 04:49:38 45° NNW 04:50:46 77° W 04:54:43 10° S
Cosmos 1634 Rocket 3.9 04:44:35 10° S 04:50:47 89° W 04:57:02 10° N
USA 234 3.2 04:44:55 10° ENE 04:51:28 79° NNW 04:55:38 24° WSW
Cosmos 1452 Rocket 3.6 04:48:21 10° SSW 04:53:38 79° ESE 04:58:57 10° NNE
Cosmos 2034 Rocket 4.3 04:47:50 10° SW 04:53:48 43° WNW 04:59:52 10° N
SL-24 R/B 4.4 04:50:16 10° SSE 04:54:36 64° ENE 04:58:48 10° N
Cosmos 1850 Rocket 3.9 04:53:27 24° NNW 04:56:49 80° WSW 05:02:09 10° SSE
Meteor 1-20 Rocket 4.2 04:51:13 10° SSW 04:57:03 75° WNW 05:02:56 10° N
Cosmos 1627 Rocket 4.4 04:51:08 10° NNW 04:57:18 65° W 05:03:32 10° S
DMSP B5D1-3 4.5 04:52:11 10° SSE 04:57:21 89° E 05:02:34 10° NNW
Cosmos 1655 Rocket 4.3 04:53:20 10° N 04:59:33 67° ENE 05:05:44 10° SSE
Cosmos 1371 Rocket 4.5 04:59:52 35° WNW 05:00:21 36° NW 05:05:09 10° N
SKYMED 2 3.9 04:56:30 10° SSW 05:00:35 40° W 05:00:50 39° W
NOAA 6 4.3 04:55:34 10° NNE 05:00:42 70° ESE 05:05:48 10° S
SOZ 3.9 05:01:39 70° E 05:01:39 70° E 05:03:29 10° ESE
Cosmos 1602 3.6 04:57:38 10° S 05:01:28 87° W 05:05:19 10° N
CZ-4B DEB 4.1 04:56:06 10° NNE 05:01:40 84° WNW 05:07:12 10° SSW
MOS 1-B 4.2 04:56:59 10° NNE 05:02:47 76° WNW 05:08:32 10° SSW
Cosmos 2263 Rocket 2.1 04:59:24 10° SSW 05:05:00 83° WNW 05:10:37 10° NNE
STARLINK 1050 4.3 05:06:33 29° SW 05:06:47 29° SW 05:09:51 10° SSE
STARLINK 1055 4.3 05:09:26 28° SW 05:09:45 28° SW 05:12:48 10° SSE
Cosmos 1484 Rocket 3.3 05:07:04 10° N 05:10:45 37° WNW 05:11:29 34° W
Okean 1-7 3.6 05:10:51 33° WNW 05:11:38 35° W 05:15:38 10° SSW
STARLINK 1022 4.4 05:11:50 26° SW 05:12:14 27° SW 05:15:15 10° SSE
Meteor 1-18 Rocket 4.3 05:07:08 11° NNW 05:12:21 53° W 05:17:44 10° S
Helios 1A Rocket 2.8 05:09:19 10° NNE 05:13:23 88° ESE 05:17:24 10° SSW
Cosmos 1092 Rocket 4.4 05:08:29 10° NNW 05:14:08 39° W 05:19:44 10° SSW
STARLINK 1042 4.4 05:15:06 25° SW 05:15:37 26° SW 05:18:34 10° SSE
Cosmos 2142 Rocket 4.5 05:10:40 10° SSW 05:17:04 77° W 05:23:29 10° N
Cosmos 2227 4.4 05:16:29 10° SW 05:22:06 52° NW 05:27:46 10° NNE
Cosmos 405 3.7 05:19:09 10° N 05:22:40 55° ENE 05:26:08 10° SSE
Radarsat Rocket 4.5 05:17:23 10° NNE 05:23:31 70° ESE 05:30:19 10° S
Cosmos 2297 Rocket 3.8 05:23:16 16° NW 05:23:42 16° NNW 05:27:06 10° N
FENGYUN 3A 3.6 05:19:52 10° N 05:25:12 61° WNW 05:30:28 10° SSW
Cosmos 2227 Rocket 3.8 05:27:28 16° NW 05:28:08 16° NNW 05:31:32 10° N
CZ-4B R/B 3.2 05:25:33 10° NNE 05:31:08 74° WNW 05:36:46 10° SSW
SWAS 4.5 05:30:06 10° SW 05:34:22 60° NW 05:38:41 10° NNE
CZ-4C R/B 4.4 05:33:25 15° W 05:35:05 16° WSW 05:39:27 10° SW
Meteor 1-11 Rocket 4.4 05:31:50 10° S 05:37:29 62° E 05:43:18 10° NNE
Cosmos 1844 Rocket 3.9 05:32:59 10° S 05:38:17 45° ESE 05:43:35 10° NE
Cosmos 1331 Rocket 4.3 05:38:29 10° SSW 05:43:36 70° ESE 05:48:47 10° NNE
METEOR-M 4.5 05:40:49 10° N 05:45:49 41° WNW 05:50:48 10° SW
Cosmos 1943 4.4 05:43:14 16° WNW 05:45:54 23° WSW 05:50:10 10° SSW
Cosmos 2221 Rocket 4.2 05:42:59 10° NNW 05:47:00 35° W 05:51:01 10° SSW
COSMO-SKYMED 1 4.2 05:46:33 10° WSW 05:49:00 15° W 05:49:21 15° W
Cosmos 1346 Rocket 3.2 05:47:15 10° SW 05:50:52 37° WNW 05:54:31 10° N
H-2A R/B 2.6 05:47:27 10° NNE 05:51:13 87° WNW 05:54:59 10° SSW
IRIDIUM 104 4.4 05:46:54 10° N 05:52:10 82° E 05:57:23 10° S
Cosmos 332 Rocket 4.1 05:48:40 10° SSW 05:53:34 75° ESE 05:58:29 10° NNE
Cosmos 1110 Rocket 4.0 05:50:20 10° SSW 05:55:32 87° WNW 06:00:45 10° NNE
Cosmos 2082 Rocket 3.9 05:52:26 10° NNW 05:57:04 25° NE 06:01:40 10° E
Cosmos 2180 Rocket 4.5 05:51:45 10° SSW 05:57:47 60° WNW 06:03:54 10° N
Cosmos 2266 Rocket 4.0 05:51:44 10° NNW 05:57:58 72° W 06:04:04 10° S
Okean O Rocket 2.2 05:54:11 10° N 05:58:08 34° WNW 06:02:06 10° SW
USA 81 4.2 05:53:09 10° N 05:58:28 84° E 06:03:45 10° S
CZ-2C R/B 3.8 05:53:52 10° SSE 05:58:37 82° WSW 06:03:25 10° NNW
IRIDIUM 114 4.3 05:56:02 10° N 06:01:17 84° W 06:06:30 10° S
Okean 3 4.3 06:01:17 10° NNW 06:04:53 28° W 06:08:30 10° SSW
Cosmos 1486 Rocket 4.2 06:01:40 10° NNW 06:07:00 77° ENE 06:12:16 10° SSE
ATLAS CENTAUR R/B 1.7 06:03:41 10° NW 06:07:59 61° NE 06:11:55 10° SE
CZ-2C R/B 4.0 06:03:46 10° SE 06:08:35 37° ENE 06:13:21 10° N
ATLAS 5 CENTAUR R/B 3.5 06:06:05 10° NW 06:09:34 19° N 06:13:27 10° NE
SAR-Lupe-2 3.5 06:06:02 10° S 06:09:37 78° WSW 06:13:15 10° NNW
Cosmos 1733 Rocket 3.2 06:05:33 10° SSW 06:09:44 49° WNW 06:13:57 10° N
IRIDIUM 103 4.3 06:05:14 10° N 06:10:27 71° W 06:15:38 10° S
SMAP 3.1 06:07:08 10° N 06:11:46 64° WNW 06:16:22 10° SSW
Meteor 1-5 Rocket 4.4 06:09:29 10° SSW 06:15:23 62° WNW 06:21:10 10° N
Cosmos 371 Rocket 3.3 06:10:39 10° SW 06:15:27 61° WNW 06:20:18 10° NNE
Okean-O 2.8 06:11:06 10° NNE 06:15:34 82° ESE 06:20:00 10° SSW
Meteor 2-4 Rocket 4.3 06:10:43 10° NNW 06:15:38 34° W 06:20:25 10° SSW
CORIOLIS 4.2 06:12:03 10° NNE 06:17:30 79° WNW 06:22:52 10° SSW
ALOS 3.6 06:17:20 10° NNW 06:20:34 19° WNW 06:23:48 10° WSW
CZ-4 R/B 2.4 06:17:00 10° NNE 06:20:46 49° E 06:24:36 10° S
Cosmos 44 3.1 06:17:40 10° SW 06:22:19 63° NW 06:26:47 10° NE
Cosmos 1340 4.2 06:21:56 10° WSW 06:24:24 16° WNW 06:26:51 10° NNW
Envisat 3.1 06:19:34 10° NNE 06:24:42 89° ESE 06:29:48 10° SSW
Cosmos 1500 3.9 06:23:56 10° SW 06:27:25 32° WNW 06:30:55 10° N
IRS-1C Rocket 4.2 06:22:35 10° N 06:27:43 54° WNW 06:32:49 10° SW
Cosmos 1066 Rocket 4.2 06:26:05 10° NNW 06:31:42 71° W 06:37:07 10° S
